Weather History for Beaufort, NC

Change the Weather History Date:

Monday, February 18, 2013

  Actual Average Record
Temperature  
Mean Temperature 36 °F -  
Max Temperature 48 °F 56 °F 72 °F (1984)
Min Temperature 27 °F 36 °F 12 °F (1958)
Degree Days  
Heating Degree Days 28    
Moisture  
Dew Point 18 °F    
Average Humidity 44    
Maximum Humidity 61    
Minimum Humidity 27    
Precipitation  
Precipitation 0.00 in - - ()
Sea Level Pressure  
Sea Level Pressure 30.38 in    
Wind  
Wind Speed 8 mph (West)    
Max Wind Speed 14 mph    
Max Gust Speed -    
Visibility 10 miles    
Events      
Averages and records for this station are not official NWS values.
T = Trace of Precipitation, MM = Missing Value Source: NWS Daily Summary

Daily Weather History Graph

Daily Weather History Graph

Search for Another Location

Airport:

Trip Planner

Search our weather history database for the weather conditions in past years. The results will help you decide how hot, cold, wet, or windy it might be!

Date:

Astronomy

Feb. 18, 2013 Rise Set
Actual Time 6:48 AM EST 5:52 PM EST
Civil Twilight 6:23 AM EST 6:18 PM EST
Nautical Twilight 5:53 AM EST 6:47 PM EST
Astronomical Twilight 5:24 AM EST 7:17 PM EST
Moon 11:43 AM EST (2/18) 1:20 AM EST (2/18)
Length of Visible Light 11h 55m
Length of Day
11h 04m
First Quarter, 58% of the Moon is Illuminated
Feb 18
First Quarter
Feb 25
Full
Mar 4
Last Quarter
Mar 11
New
Mar 19
First Quarter

Hourly Weather History & Observations

Time (EST) Temp. Windchill Dew Point Humidity Pressure Visibility Wind Dir Wind Speed Gust Speed Precip Events Conditions
12:58 AM 34.0 °F 25.0 °F 12.0 °F 40% 30.32 in 10.0 mi NW 12.7 mph - N/A   Clear
1:58 AM 33.1 °F 23.4 °F 12.9 °F 43% 30.33 in 10.0 mi NNW 13.8 mph - N/A   Clear
2:58 AM 28.0 °F 24.2 °F 12.9 °F 53% 30.33 in 10.0 mi North 3.5 mph - N/A   Clear
3:58 AM 28.9 °F 21.9 °F 10.9 °F 47% 30.34 in 10.0 mi North 6.9 mph - N/A   Clear
4:58 AM 28.0 °F 21.7 °F 10.0 °F 47% 30.37 in 10.0 mi North 5.8 mph - N/A   Clear
5:58 AM 28.9 °F 22.8 °F 10.9 °F 47% 30.39 in 10.0 mi North 5.8 mph - N/A   Clear
6:58 AM 27.0 °F 23.0 °F 10.9 °F 51% 30.40 in 10.0 mi North 3.5 mph - N/A   Clear
7:58 AM 32.0 °F 27.5 °F 10.9 °F 42% 30.43 in 10.0 mi North 4.6 mph - N/A   Clear
9:58 AM 37.9 °F 35.5 °F 12.0 °F 35% 30.46 in 10.0 mi North 3.5 mph - N/A   Clear
10:58 AM 41.0 °F 39.0 °F 10.9 °F 29% 30.45 in 10.0 mi NNW 3.5 mph - N/A   Clear
11:58 AM 43.0 °F 41.3 °F 10.9 °F 27% 30.44 in 10.0 mi Variable 3.5 mph - N/A   Clear
12:58 PM 46.9 °F - 14.0 °F 27% 30.42 in 10.0 mi NW 4.6 mph - N/A   Clear
1:58 PM 45.0 °F 41.2 °F 19.9 °F 37% 30.39 in 10.0 mi WSW 6.9 mph - N/A   Clear
2:58 PM 44.1 °F 39.0 °F 19.9 °F 38% 30.38 in 10.0 mi South 9.2 mph - N/A   Clear
3:58 PM 45.0 °F 40.1 °F 21.0 °F 39% 30.38 in 10.0 mi SSW 9.2 mph - N/A   Clear
4:58 PM 44.1 °F 40.1 °F 21.9 °F 42% 30.38 in 10.0 mi South 6.9 mph - N/A   Clear
5:58 PM 42.1 °F 38.4 °F 24.1 °F 49% 30.39 in 10.0 mi South 5.8 mph - N/A   Clear
6:58 PM 42.1 °F 37.7 °F 25.0 °F 51% 30.39 in 10.0 mi South 6.9 mph - N/A   Clear
7:58 PM 44.1 °F 39.0 °F 26.1 °F 49% 30.38 in 10.0 mi SSW 9.2 mph - N/A   Clear
8:58 PM 45.0 °F 39.7 °F 28.0 °F 52% 30.38 in 10.0 mi SSW 10.4 mph - N/A   Clear
10:58 PM 46.9 °F - 33.1 °F 59% 30.34 in 10.0 mi SSW 9.2 mph - N/A   Clear
11:58 PM 48.9 °F - 36.0 °F 61% 30.33 in 10.0 mi SSW 9.2 mph - N/A   Clear